Vertical_Velocity
0 0 0 0 0 1 1 1 1 1 1 1 1 1 1 1 1 1 1 1 0 0 -0 -1 -1 -0 0 1 1 1 -0 -1 -1 -0 0 -1 -2 -3 -3 -3 -3 -3 -3 -3 -2 -2 -1 1 1 0 -2 -3 -3 -2 -2 -2 -1 -1 -0 -0 -0 -0 -1 -1 -0 -0 0 0 0 1 2 2 2 1 0 -0 -1 -2 -3 -3 -2 -2 -1 0 2 4 4 3 3 2 1 0 0 0 -0 -0 -1 -1 -2 -2 -1 -1 0
-1 -0 -0 -1 -0 -0 -0 0 0 0 0 0 -0 -0 -0 -0 0 0 0 0 0 0 0 -0 -0 0 1 1 1 1 0 -0 -1 -0 1 0 -1 -2 -3 -3 -3 -3 -4 -3 -3 -2 -1 0 1 0 -1 -3 -3 -2 -2 -2 -2 -1 -0 0 0 -0 -1 -1 -1 -0 0 -0 -0 0 1 1 1 1 0 -0 -1 -2 -2 -2 -2 -1 -0 1 3 4 3 1 1 -0 -0 -0 1 1 -0 -0 -1 -1 -1 -1 -1 -1 1
-1 -1 -1 -1 -1 -1 -1 -1 -1 -0 -0 -0 -0 -0 -1 -1 -1 -1 -1 -1 -0 -0 -0 -0 -0 -0 1 1 1 1 1 0 0 0 1 1 1 -1 -2 -3 -2 -2 -3 -4 -3 -3 -1 -0 0 -0 -1 -2 -3 -2 -2 -2 -2 -1 -1 0 0 0 -1 -1 -0 -0 0 -0 -1 -1 0 1 1 0 0 0 -0 -1 -2 -2 -1 -0 1 2 4 4 3 1 -0 -1 -0 0 1 1 0 -0 -0 -0 -0 -0 -1 -1 1
-1 -1 -1 -1 -1 -1 -1 -1 -1 -1 -0 -0 -0 -0 -1 -1 -1 -2 -2 -2 -2 -2 -1 -1 -1 -1 -1 -0 0 0 0 0 1 1 1 2 2 1 -0 -2 -2 -2 -1 -3 -3 -3 -2 -1 -0 -1 -1 -2 -2 -3 -2 -2 -2 -2 -2 -0 0 1 -0 -0 -0 -0 0 -1 -1 -1 -1 -0 -0 0 1 1 0 -0 -1 -0 0 1 1 2 3 4 2 0 -0 -0 -0 -0 0 0 0 0 0 0 1 1 0 -1 -1
-1 -1 -1 -1 -0 -0 -0 -0 -0 -0 -0 -0 0 0 0 -0 -1 -1 -2 -2 -2 -2 -3 -2 -2 -2 -2 -1 -1 -1 -1 -0 0 1 1 1 2 2 2 -1 -2 -2 -0 -1 -2 -3 -3 -2 -1 -1 -2 -2 -2 -2 -3 -3 -2 -2 -2 -1 -0 1 1 0 -0 -0 -0 -1 -1 -2 -1 -1 -1 -0 1 1 1 0 -0 1 1 2 1 1 2 2 1 -0 -0 0 0 -0 -0 -0 1 1 1 1 1 2 1 -0 -2
-2 -1 -1 -1 -1 -1 -1 -0 -0 0 0 0 0 1 1 1 1 1 0 -0 -1 -2 -2 -3 -3 -3 -2 -3 -3 -3 -3 -2 -1 -0 0 0 1 1 3 1 -1 -1 -0 0 -0 -2 -3 -2 -2 -1 -1 -1 -1 -2 -3 -4 -3 -3 -3 -1 -1 0 1 0 0 0 -0 -1 -1 -1 -1 -1 -1 -1 -0 -0 0 1 1 2 2 2 1 1 1 0 -0 -1 -0 0 0 0 -1 -1 -0 1 1 1 0 0 0 -0 -2
-2 -2 -2 -2 -2 -2 -2 -1 -1 -1 -0 -0 -0 0 0 1 1 2 2 1 1 0 -0 -1 -1 -1 -2 -3 -3 -4 -4 -3 -3 -2 -1 -1 -1 0 1 1 0 -1 -1 0 1 -0 -2 -2 -2 -1 -1 -2 -1 -1 -3 -4 -4 -4 -3 -2 -1 -1 1 1 1 0 -0 -1 -1 -1 -1 -1 -1 -1 -1 -1 -1 1 2 3 3 2 1 0 -0 -1 -1 -0 -0 0 1 0 -1 -2 -1 0 1 1 -0 -1 -2 -2 -1
-3 -3 -3 -3 -3 -3 -3 -3 -3 -3 -2 -2 -2 -1 -1 -1 -1 -0 0 1 1 1 1 1 1 1 1 -0 -2 -3 -3 -3 -3 -3 -3 -3 -2 -1 -0 0 0 -0 -1 0 1 1 -0 -1 -1 -1 -1 -2 -1 -1 -2 -3 -5 -5 -4 -3 -2 -1 0 0 1 0 -0 -1 -1 -1 -1 -0 -1 -2 -2 -2 -1 1 3 4 3 2 0 -0 -1 -1 -1 0 1 1 0 -0 -0 -1 -1 -1 -0 0 1 -0 -2 -2 -0
-4 -4 -4 -4 -3 -4 -4 -4 -4 -4 -3 -3 -3 -2 -3 -3 -3 -2 -2 -2 -1 -1 -0 1 1 2 2 1 1 -0 -1 -1 -2 -2 -3 -3 -3 -3 -2 -1 -1 -0 -1 -0 0 0 0 -1 -1 -0 -1 -1 -1 -1 -1 -3 -4 -5 -4 -4 -2 -1 -0 -0 -0 -0 -0 -1 -1 -1 -1 -0 -1 -1 -2 -2 -1 0 3 3 3 2 0 -0 -0 -0 -0 1 1 1 -0 -0 -0 -0 -0 -0 -0 1 2 1 -0 -1 0
-3 -3 -3 -3 -2 -2 -2 -3 -3 -3 -3 -2 -2 -2 -2 -2 -2 -2 -3 -3 -3 -2 -2 -1 -1 -0 0 1 1 1 1 1 0 -0 -1 -2 -3 -3 -3 -2 -1 -1 -1 -0 -0 -0 -0 -1 -1 -0 -1 0 -1 -1 -0 -2 -3 -3 -4 -4 -3 -2 -1 -1 -1 -1 -1 -1 -1 -1 -1 -1 -0 -0 -1 -1 -1 0 1 2 2 1 1 0 0 0 0 1 1 1 0 -0 -0 0 1 0 -0 0 2 1 1 0 -0
-3 -3 -2 -2 -1 -1 -1 -1 -1 -1 -1 -1 -1 -0 -0 -0 -0 -0 -1 -1 -1 -1 -1 -1 -1 -1 -1 -1 -1 -0 1 1 1 1 -0 -1 -1 -2 -2 -2 -2 -1 -0 -0 -0 -0 -0 -1 -1 -1 -0 1 -0 -1 -0 -2 -2 -1 -3 -3 -4 -3 -2 -1 -1 -2 -2 -2 -2 -1 -1 -1 -0 0 1 0 -0 -0 -0 0 1 1 1 1 1 1 1 0 1 1 1 1 -0 -0 -0 0 0 0 0 0 1 2 2
-3 -3 -3 -2 -2 -1 -1 -1 -1 -1 -1 -0 -0 -0 0 0 1 1 1 1 1 1 1 1 1 1 0 -0 -1 -0 -0 0 1 1 0 -0 -0 -1 -1 -1 -1 -1 -0 -0 -0 -0 -0 -0 -1 -1 -0 0 -0 -1 -1 -2 -1 -1 -1 -2 -3 -4 -3 -2 -2 -2 -2 -3 -2 -2 -1 -1 0 1 1 1 -0 -1 -1 -1 -1 -0 0 1 1 1 1 1 1 1 1 0 -0 -1 -1 0 1 1 0 -0 0 1 3
-3 -3 -3 -3 -3 -2 -2 -2 -1 -1 -1 -1 -1 -1 -1 -0 -0 -0 -0 0 0 1 1 1 2 2 2 2 2 1 1 1 1 1 0 -0 -0 -0 -0 -0 -0 -0 -0 0 1 1 0 -0 -1 -1 1 0 -0 -1 -2 -1 -1 -1 -0 0 -1 -3 -4 -3 -2 -2 -3 -3 -3 -3 -2 -1 0 1 1 1 -0 -1 -2 -2 -2 -1 1 2 2 2 2 2 1 1 0 -0 -0 -0 -0 0 1 1 1 -0 -0 1 3
-2 -3 -3 -3 -3 -3 -3 -2 -2 -2 -2 -1 -1 -1 -1 -1 -1 -1 -1 -1 -1 -0 -0 -0 -0 0 1 2 2 2 2 2 2 2 1 1 1 0 -0 -0 -0 -0 -0 -0 1 1 1 -0 -1 -0 2 1 0 -1 -3 -1 -1 -1 1 1 -0 -2 -3 -3 -3 -3 -3 -3 -3 -3 -2 -1 -0 0 1 0 0 -1 -1 -2 -1 -0 1 1 2 3 3 3 2 1 -0 -0 0 1 1 1 1 1 1 -0 -0 0 2
-1 -2 -2 -2 -2 -2 -2 -2 -2 -1 -1 -1 -1 -1 -1 -1 -1 -1 -1 -1 -1 -1 -1 -1 -1 -1 -1 -0 -0 0 1 2 2 2 2 2 2 1 1 1 0 -0 -1 -0 0 1 1 -0 -0 1 4 4 1 -1 -3 -2 -2 -1 1 1 0 -1 -2 -3 -3 -3 -3 -3 -3 -3 -3 -2 -1 -0 0 0 0 -0 -1 -1 -1 -0 1 1 2 3 4 4 2 1 -0 -0 1 2 2 1 -0 -1 -0 -0 -1 -0 1
-1 -1 -2 -1 -1 -1 -1 -1 -1 -1 -0 -0 -0 -0 -0 -0 -1 -1 -1 -1 -1 -0 -0 -0 -0 -1 -1 -1 -1 -1 -1 0 1 1 2 2 2 2 2 1 1 -0 -1 -1 -0 -0 -0 -0 0 2 5 5 3 -0 -2 -2 -2 -1 1 1 0 -0 -1 -2 -3 -3 -3 -3 -3 -2 -2 -3 -2 -2 -0 -0 -0 -0 -0 -1 -1 -1 0 1 2 3 4 4 3 2 0 -0 1 2 2 1 -0 -0 -0 -0 -1 -1 0
-1 -2 -2 -2 -2 -2 -1 -1 -1 -1 -1 -1 -1 -0 -0 -0 -0 -1 -1 -1 -1 -1 -1 -0 -0 0 0 -0 -1 -1 -1 -1 -0 1 1 1 1 1 1 1 1 -0 -1 -1 -1 -1 -1 -0 1 2 4 6 4 2 -0 -1 -1 -1 0 0 0 -0 -1 -2 -3 -3 -3 -3 -3 -2 -1 -2 -3 -3 -2 -1 -0 -0 -0 -1 -1 -0 0 1 1 2 3 3 3 2 0 -0 0 1 2 1 1 0 -0 -0 -0 -0 0
-1 -2 -3 -3 -4 -4 -3 -3 -3 -3 -3 -3 -3 -2 -2 -2 -2 -2 -2 -2 -2 -2 -2 -1 -1 -0 -0 -0 -1 -1 -2 -1 -0 1 1 1 0 0 0 1 -0 -1 -1 -2 -3 -2 -1 -0 0 1 3 5 5 3 1 0 0 -0 -0 -0 -0 -0 -1 -2 -3 -3 -3 -3 -3 -3 -1 -1 -2 -3 -3 -2 -1 -1 -0 -0 -0 -0 0 0 1 1 2 2 2 2 1 -0 -0 1 1 2 1 1 0 -0 -0 0 0
0 -0 -1 -2 -3 -4 -5 -5 -5 -5 -6 -6 -5 -5 -4 -4 -4 -4 -4 -4 -4 -4 -4 -4 -3 -2 -1 -1 -1 -2 -3 -2 -1 -0 -0 1 1 0 0 -0 -1 -2 -2 -4 -4 -3 -2 -2 -1 -0 2 4 4 4 3 2 2 1 1 -0 -1 -1 -0 -1 -2 -3 -2 -3 -3 -3 -2 -1 -2 -2 -3 -3 -2 -1 -0 -0 -0 -0 -0 0 1 1 1 1 1 2 1 0 0 0 1 2 2 1 1 0 -0 -0 0
0 1 1 0 -1 -1 -2 -4 -4 -5 -6 -6 -7 -6 -6 -4 -4 -4 -6 -5 -5 -6 -6 -6 -6 -6 -4 -3 -3 -3 -4 -4 -2 -1 -2 -1 -0 0 1 -0 -2 -2 -3 -4 -4 -4 -4 -4 -3 -1 0 2 3 4 4 2 2 3 3 1 -0 -1 -1 -1 -2 -2 -2 -3 -3 -4 -3 -2 -1 -1 -2 -3 -2 -1 -1 -0 -0 -0 -0 -0 0 0 0 1 2 2 2 1 1 0 1 1 1 1 1 1 0 -0 -0
-1 -1 -0 -0 -0 -0 -0 -1 -1 -2 -3 -4 -4 -5 -7 -5 -3 -4 -6 -3 -4 -5 -7 -6 -7 -8 -7 -5 -5 -5 -6 -5 -3 -3 -5 -3 -1 -1 -1 -1 -2 -2 -3 -4 -4 -4 -6 -7 -5 -3 -2 -0 1 2 3 2 3 4 4 2 1 -0 -1 -1 -2 -2 -2 -3 -3 -3 -4 -3 -2 -1 -1 -2 -2 -2 -2 -1 -1 -1 -1 -0 0 1 0 1 2 3 3 2 1 1 0 0 1 1 1 1 0 -0 0
-3 -3 -3 -3 -3 -3 -1 -1 -0 0 1 -0 0 -0 -4 -3 -2 -2 -6 -3 -2 -3 -6 -5 -6 -8 -9 -7 -6 -7 -8 -6 -4 -5 -8 -5 -3 -2 -3 -2 -2 -2 -3 -5 -5 -5 -8 -7 -6 -5 -5 -3 -2 -0 1 2 3 4 4 3 2 1 -0 -1 -1 -2 -2 -3 -3 -3 -3 -4 -3 -2 -1 -1 -2 -2 -2 -2 -2 -1 -0 -0 0 0 1 1 1 2 2 1 1 0 0 0 1 1 1 1 1 1 1
-4 -5 -6 -5 -5 -6 -5 -3 -2 -1 1 1 2 4 1 1 2 1 -4 -3 -2 -1 -3 -4 -5 -6 -8 -6 -8 -9 -9 -6 -6 -7 -7 -6 -5 -4 -3 -4 -4 -4 -3 -5 -6 -6 -7 -7 -7 -6 -6 -6 -5 -3 -0 2 3 3 3 3 3 3 2 0 -1 -1 -2 -2 -2 -2 -3 -3 -3 -3 -2 -2 -2 -2 -2 -2 -2 -1 -1 -0 -0 -0 0 1 1 1 1 1 1 1 1 1 1 1 1 2 2 2 1
-7 -6 -8 -6 -6 -6 -7 -4 -4 -4 -4 -3 0 2 2 1 3 4 2 -1 -1 -0 -1 -3 -4 -4 -4 -5 -7 -8 -7 -7 -8 -9 -6 -5 -6 -7 -4 -3 -4 -5 -5 -5 -6 -7 -7 -7 -7 -8 -7 -8 -7 -5 -2 -0 1 2 2 2 2 3 3 2 0 -1 -2 -2 -2 -2 -2 -3 -3 -4 -3 -3 -2 -2 -2 -2 -2 -2 -1 -1 -1 -0 -0 1 1 1 1 1 2 2 2 2 2 2 1 2 2 2 1
-8 -7 -9 -8 -6 -6 -8 -5 -4 -4 -6 -6 -5 -2 -0 -3 -2 1 4 2 1 1 2 -1 -3 -3 -3 -4 -6 -6 -4 -6 -8 -9 -8 -6 -6 -7 -8 -4 -4 -5 -7 -6 -6 -7 -7 -7 -8 -8 -8 -9 -9 -7 -4 -2 -1 1 1 -0 0 2 2 2 1 0 -1 -1 -2 -2 -2 -2 -3 -4 -4 -3 -3 -2 -2 -2 -2 -2 -2 -2 -1 -1 -0 0 1 1 1 2 2 2 2 2 2 2 1 1 1 1 0
-8 -7 -8 -9 -7 -6 -6 -6 -4 -4 -4 -8 -8 -6 -4 -6 -8 -6 -1 0 0 1 4 2 0 -1 -2 -4 -4 -4 -5 -5 -6 -7 -9 -7 -6 -6 -7 -5 -4 -4 -6 -6 -7 -8 -7 -7 -8 -8 -8 -9 -9 -8 -6 -5 -3 -1 -0 -1 -1 -0 1 2 2 1 0 -1 -1 -1 -1 -2 -3 -4 -4 -4 -3 -3 -2 -2 -2 -2 -2 -2 -2 -1 -1 -0 0 1 2 2 1 1 -0 1 1 1 0 0 1 1 1
-7 -6 -8 -8 -7 -6 -5 -6 -5 -4 -4 -7 -8 -8 -7 -6 -10 -13 -10 -5 -4 -4 -0 1 2 1 -0 -2 -2 -3 -6 -5 -4 -4 -7 -7 -7 -6 -5 -5 -5 -5 -4 -7 -8 -7 -6 -8 -8 -8 -8 -9 -9 -9 -9 -7 -4 -2 -2 -3 -3 -2 -1 0 1 2 1 0 -0 -1 -1 -1 -2 -3 -4 -4 -3 -3 -3 -3 -3 -3 -3 -3 -3 -2 -1 -0 0 1 2 1 -0 -1 -1 -0 1 1 0 1 1 2 2
-6 -6 -5 -6 -6 -6 -4 -6 -6 -6 -5 -6 -7 -9 -11 -6 -8 -13 -15 -9 -8 -9 -7 -4 -2 0 1 1 0 -1 -3 -5 -5 -4 -5 -5 -5 -6 -6 -5 -5 -5 -4 -6 -6 -7 -8 -8 -8 -7 -9 -9 -9 -9 -10 -8 -6 -4 -4 -4 -4 -4 -3 -1 0 1 1 1 0 -1 -1 -1 -2 -3 -4 -4 -3 -3 -4 -4 -3 -3 -3 -3 -3 -2 -2 -1 -0 0 1 1 -0 -1 -0 0 1 1 1 0 1 1 2
-6 -6 -3 -4 -5 -6 -4 -7 -8 -7 -7 -6 -6 -8 -12 -7 -7 -10 -13 -11 -11 -11 -10 -8 -7 -5 -1 -0 1 1 -0 -2 -3 -4 -7 -4 -3 -4 -5 -3 -4 -6 -4 -4 -6 -7 -7 -6 -6 -7 -8 -8 -9 -10 -9 -7 -6 -6 -6 -6 -5 -5 -5 -4 -2 -0 1 1 0 -0 -1 -1 -1 -2 -3 -4 -4 -3 -4 -4 -4 -4 -3 -3 -2 -2 -2 -1 -0 0 0 0 0 0 1 1 1 1 1 1 1 1 2
-5 -7 -4 -3 -4 -6 -5 -6 -7 -9 -8 -6 -6 -7 -9 -8 -8 -8 -9 -8 -10 -12 -10 -9 -9 -9 -6 -4 -1 0 -0 2 1 -2 -7 -3 -3 -4 -4 -2 -4 -5 -3 -4 -6 -6 -4 -5 -6 -7 -7 -7 -8 -8 -7 -7 -7 -7 -6 -6 -6 -6 -6 -5 -4 -2 -0 0 0 -0 -1 -1 -1 -1 -2 -4 -4 -4 -3 -4 -4 -4 -3 -3 -2 -2 -1 -1 -0 -0 0 1 1 1 1 0 0 1 1 1 1 1 2
-3 -5 -5 -4 -5 -6 -8 -5 -6 -8 -9 -7 -6 -7 -8 -6 -7 -8 -8 -6 -8 -10 -9 -8 -9 -9 -8 -6 -4 -3 -1 3 2 -1 -3 -1 -2 -4 -4 -3 -3 -3 -3 -5 -5 -4 -3 -4 -6 -6 -6 -6 -6 -6 -7 -8 -7 -6 -6 -6 -6 -7 -7 -6 -6 -4 -2 -0 0 -0 -1 -1 -2 -2 -2 -4 -4 -4 -3 -4 -4 -5 -4 -3 -2 -2 -1 -1 -0 -0 0 1 2 2 1 1 1 2 2 2 2 2 3
-3 -4 -5 -5 -6 -7 -10 -8 -7 -8 -9 -8 -7 -6 -8 -6 -6 -6 -7 -6 -7 -7 -7 -8 -8 -8 -7 -7 -6 -5 -1 0 -0 -1 1 2 -1 -4 -5 -2 -2 -3 -4 -2 -3 -4 -5 -4 -4 -4 -4 -4 -5 -6 -7 -7 -6 -5 -5 -6 -6 -6 -7 -7 -6 -6 -4 -2 -1 -0 -1 -2 -2 -2 -2 -3 -4 -4 -4 -4 -4 -5 -5 -4 -2 -1 -1 -0 -0 -0 0 1 1 1 2 3 3 4 3 2 3 3 3
-4 -5 -6 -6 -6 -7 -9 -10 -9 -8 -8 -8 -7 -6 -7 -7 -6 -6 -5 -6 -6 -6 -5 -6 -7 -7 -6 -7 -7 -6 -2 -3 -3 -1 2 2 1 -1 -3 -0 -2 -4 -4 -1 -3 -6 -4 -1 -2 -3 -3 -3 -4 -6 -5 -5 -5 -5 -5 -4 -5 -5 -6 -6 -6 -6 -5 -3 -2 -1 -1 -2 -2 -2 -2 -3 -3 -4 -4 -4 -4 -4 -4 -3 -2 -1 -0 -0 -0 -0 -0 0 0 1 2 3 4 4 3 2 3 3 3
-6 -6 -7 -8 -8 -8 -8 -9 -9 -9 -8 -8 -7 -7 -7 -7 -7 -6 -4 -4 -5 -5 -5 -4 -5 -6 -6 -6 -6 -6 -5 -6 -4 -2 -1 0 1 1 1 0 -3 -5 -2 -1 -3 -5 -1 -0 -2 -3 -1 -1 -3 -4 -3 -4 -5 -5 -4 -3 -3 -4 -5 -5 -6 -6 -6 -5 -3 -2 -2 -2 -2 -2 -2 -2 -3 -4 -5 -4 -4 -3 -3 -3 -3 -2 -1 -1 -1 -1 -1 -1 -1 -0 0 2 3 3 2 2 2 3 3
-8 -7 -6 -8 -9 -10 -9 -8 -8 -9 -9 -8 -8 -7 -6 -6 -6 -6 -5 -4 -4 -4 -5 -3 -3 -5 -6 -5 -5 -6 -6 -6 -5 -4 -4 -2 -0 2 4 -0 -3 -3 -1 -3 -4 -3 -0 -0 -2 -3 1 0 -2 -4 -3 -4 -4 -4 -2 -1 -2 -2 -3 -4 -4 -5 -6 -6 -5 -3 -2 -2 -1 -1 -2 -3 -3 -4 -4 -4 -3 -2 -2 -3 -3 -3 -2 -1 -1 -1 -1 -1 -2 -2 -1 1 2 2 2 2 3 4 4
-8 -10 -7 -8 -9 -10 -10 -9 -8 -8 -8 -9 -8 -7 -6 -6 -6 -5 -5 -4 -3 -3 -5 -3 -3 -4 -4 -4 -4 -5 -5 -5 -6 -6 -6 -4 -2 -0 3 -1 -2 -2 -1 -4 -4 -1 0 -1 -2 -1 2 -0 -2 -3 -2 -3 -4 -3 -1 -1 -1 -1 -1 -2 -3 -4 -5 -6 -5 -4 -3 -2 -2 -1 -2 -2 -3 -3 -3 -2 -2 -2 -2 -3 -3 -3 -2 -1 -1 -1 -1 -1 -1 -1 -1 1 2 3 3 3 3 4 4
-7 -10 -9 -8 -8 -9 -9 -10 -9 -8 -7 -8 -8 -8 -6 -7 -6 -5 -4 -5 -4 -4 -4 -4 -4 -4 -2 -4 -4 -4 -4 -4 -5 -6 -6 -4 -4 -2 -0 -2 -1 -0 -2 -5 -2 1 1 -2 -1 1 2 -0 -1 -1 -2 -3 -3 -2 -3 -2 -1 -1 -0 0 -1 -2 -4 -5 -5 -4 -3 -2 -2 -2 -2 -2 -2 -2 -1 -1 -1 -2 -2 -2 -3 -3 -3 -2 -1 -0 -1 -1 -0 -0 -0 1 3 4 4 4 4 4 5
-8 -9 -11 -9 -8 -9 -8 -9 -9 -9 -8 -7 -8 -8 -6 -6 -7 -6 -3 -4 -5 -5 -4 -5 -5 -4 -2 -3 -3 -3 -4 -3 -4 -5 -5 -4 -4 -4 -3 -2 -0 -0 -4 -4 -1 2 0 -2 -0 2 0 -0 -0 -1 -3 -2 -2 -3 -4 -2 -1 -1 1 1 1 -1 -2 -4 -4 -4 -3 -2 -2 -1 -1 -2 -2 -1 -0 -0 -1 -1 -2 -2 -3 -3 -2 -1 -0 0 1 0 0 1 1 2 4 5 6 5 4 4 4
-8 -8 -10 -10 -9 -8 -9 -8 -8 -8 -8 -6 -7 -8 -7 -5 -6 -8 -6 -4 -5 -6 -4 -5 -6 -6 -4 -3 -3 -3 -4 -3 -3 -4 -3 -3 -4 -5 -4 -2 -1 -1 -3 -1 0 0 -2 -1 1 2 -1 -1 -1 -2 -2 -0 -2 -4 -4 -2 -2 -1 1 2 1 1 -0 -2 -3 -4 -3 -2 -2 -1 -1 -1 -1 -0 0 1 -0 -1 -2 -2 -2 -2 -1 -1 0 1 1 1 1 1 2 3 4 6 6 5 4 4 4
-9 -8 -8 -9 -9 -8 -8 -8 -8 -7 -7 -6 -6 -7 -8 -6 -6 -7 -8 -6 -5 -6 -6 -5 -6 -7 -9 -5 -3 -3 -6 -3 -2 -3 -4 -2 -4 -5 -4 -3 -2 -2 -0 0 -1 -2 -3 1 2 1 -2 -1 -1 -0 1 -1 -3 -4 -2 -2 -2 -1 1 1 2 1 0 -1 -2 -2 -2 -2 -1 -1 -1 -1 -0 0 1 1 0 -1 -2 -1 -1 -1 -1 -0 1 1 1 1 0 0 1 2 4 4 5 4 3 3 3
-9 -9 -8 -8 -9 -9 -7 -8 -8 -7 -6 -7 -6 -6 -7 -7 -6 -7 -8 -8 -7 -6 -6 -6 -6 -6 -9 -9 -6 -3 -5 -4 -3 -2 -3 -2 -3 -4 -4 -4 -3 -2 1 1 -1 -3 -1 1 2 1 0 -0 1 1 -0 -3 -3 -2 -2 -2 -2 -1 -0 1 1 1 -0 -1 -1 -1 -1 -1 -1 -1 -1 -0 0 1 1 1 1 0 -0 -0 0 0 0 0 1 1 1 1 0 0 1 2 3 3 3 3 2 2 2
-9 -9 -9 -9 -9 -9 -8 -8 -8 -7 -6 -6 -6 -6 -6 -7 -8 -7 -8 -8 -8 -8 -7 -6 -6 -6 -7 -8 -7 -6 -4 -5 -4 -2 -2 -3 -3 -3 -3 -4 -3 -2 0 0 -1 -1 -0 1 1 1 2 2 2 1 -4 -2 -0 0 -1 -2 -2 -2 -0 0 -0 -0 -0 0 1 1 0 -1 -1 -1 -1 -0 1 1 2 2 2 2 1 1 1 1 1 0 0 1 1 1 0 0 0 1 2 2 2 2 2 1 1
-8 -8 -9 -9 -9 -9 -9 -8 -8 -7 -6 -6 -6 -7 -6 -8 -8 -8 -9 -8 -8 -8 -9 -5 -4 -6 -7 -7 -7 -6 -5 -6 -5 -3 -2 -3 -3 -2 -2 -3 -3 -2 -1 0 -0 -1 -0 0 1 2 3 3 2 -0 -2 1 2 0 -1 -3 -2 -1 -0 -1 -2 -1 0 1 1 1 1 0 -0 -1 -1 -0 1 2 3 3 3 3 3 2 2 2 2 1 0 1 1 1 0 -0 -0 1 1 1 1 2 2 2 1
-8 -8 -8 -8 -8 -8 -9 -8 -8 -7 -7 -6 -6 -7 -7 -8 -9 -9 -9 -9 -7 -6 -8 -6 -4 -3 -6 -6 -7 -6 -5 -6 -5 -4 -3 -2 -2 -2 -2 -2 -2 -2 -1 0 0 -0 1 0 1 2 4 4 2 0 2 3 2 -1 -2 -2 -1 -0 -1 -3 -3 -1 0 1 1 1 1 1 0 -1 -1 0 1 2 3 3 3 3 4 4 4 3 2 1 1 0 1 1 1 0 0 1 2 2 3 4 4 4 3
-8 -8 -8 -8 -7 -8 -8 -8 -8 -7 -7 -6 -6 -6 -8 -8 -9 -9 -8 -8 -6 -5 -6 -6 -4 -1 -2 -4 -6 -6 -6 -5 -5 -5 -4 -3 -2 -2 -1 -2 -2 -2 -1 0 1 1 2 1 1 3 3 3 2 3 4 3 1 -1 -0 0 -0 -2 -4 -4 -3 -1 0 0 1 1 1 1 0 0 1 1 1 2 2 3 3 3 4 4 4 4 3 2 1 1 1 1 1 1 1 2 3 4 5 6 6 5 4
-8 -8 -8 -8 -8 -8 -8 -8 -8 -7 -6 -7 -7 -7 -8 -9 -8 -8 -8 -7 -6 -4 -3 -5 -4 -2 -1 -1 -3 -5 -6 -6 -6 -6 -5 -4 -3 -2 -1 -1 -1 -1 -1 -0 2 3 2 1 2 3 2 3 4 5 5 3 1 1 2 -0 -3 -4 -4 -4 -2 -0 -1 -1 -1 0 1 1 1 2 2 1 1 1 1 2 3 3 4 5 5 4 3 2 2 2 2 2 2 2 2 3 4 5 6 7 6 5 4
-7 -7 -7 -8 -8 -8 -8 -8 -7 -7 -7 -7 -7 -8 -9 -9 -8 -7 -6 -7 -6 -6 -4 -4 -5 -4 -3 -2 -2 -3 -5 -6 -7 -7 -7 -4 -3 -2 -2 -2 -1 -1 -1 -0 2 4 3 4 3 3 4 6 6 6 6 4 3 2 1 -4 -4 -3 -3 -2 -0 -0 -3 -3 -1 0 1 2 3 3 3 1 -0 -0 0 2 2 3 4 5 6 5 4 4 3 3 4 4 4 3 3 4 4 5 6 6 6 4 3
-8 -7 -6 -7 -7 -8 -8 -7 -7 -7 -7 -7 -7 -8 -8 -8 -7 -7 -6 -6 -7 -7 -7 -5 -6 -7 -7 -4 -3 -3 -4 -6 -7 -7 -8 -6 -4 -1 -1 -3 -3 -1 0 0 2 4 5 6 5 5 8 8 8 7 6 4 2 -0 -5 -6 -3 -1 -2 1 -0 -3 -5 -2 -0 1 1 2 3 3 2 1 -0 -1 0 1 2 3 4 5 6 6 6 5 5 4 5 5 4 4 4 4 5 5 6 5 4 2 0
-8 -8 -8 -7 -6 -7 -8 -8 -7 -7 -7 -7 -7 -7 -8 -6 -6 -6 -6 -6 -7 -7 -8 -6 -5 -6 -9 -8 -6 -3 -4 -5 -7 -8 -7 -7 -6 -4 0 -1 -3 -3 1 1 2 4 8 9 9 9 11 9 7 5 2 -0 -3 -6 -7 -3 -0 0 0 1 -2 -4 -3 -1 -0 -0 1 2 2 2 1 0 -0 -0 0 0 1 2 4 6 7 7 7 6 5 5 6 6 5 5 4 5 5 5 5 4 2 -0 -3
-7 -8 -9 -9 -7 -6 -7 -8 -8 -8 -7 -6 -6 -6 -6 -5 -5 -4 -5 -6 -7 -8 -8 -8 -6 -4 -4 -9 -8 -6 -4 -6 -7 -8 -8 -6 -6 -6 -4 -0 -0 -1 -1 1 3 6 10 12 13 12 11 6 2 -1 -5 -6 -7 -6 -2 2 2 1 2 -1 -3 -3 -0 -1 -2 -1 1 1 1 1 1 1 1 1 -0 -1 0 2 4 6 7 7 7 6 6 6 6 6 6 6 5 5 5 5 4 3 2 -0 -2
-8 -7 -7 -8 -8 -7 -6 -7 -8 -8 -8 -7 -6 -4 -3 -4 -4 -4 -4 -5 -6 -8 -8 -9 -9 -7 -2 -5 -6 -6 -4 -6 -7 -8 -9 -8 -5 -4 -6 -3 -1 0 -1 1 5 9 11 12 12 10 6 -1 -6 -8 -8 -6 -3 0 4 3 2 1 1 -2 -2 -1 -1 -3 -3 -1 1 0 0 1 1 1 1 1 -1 -1 0 2 4 5 6 6 7 7 7 6 6 6 6 6 6 6 6 5 5 4 3 2 1
-8 -8 -8 -8 -8 -8 -7 -7 -7 -7 -7 -7 -7 -6 -4 -2 -3 -3 -4 -4 -5 -6 -6 -7 -8 -9 -6 -3 -3 -4 -3 -4 -6 -8 -8 -9 -7 -4 -2 -4 -3 -0 3 4 8 11 11 9 6 2 -4 -8 -8 -6 -4 0 3 4 4 2 1 -0 -1 -1 -1 -0 -1 -3 -2 -0 -0 -0 -0 1 1 1 1 0 -0 -0 0 1 3 4 5 5 6 7 7 6 6 6 6 6 6 6 6 6 6 5 4 3 2
-6 -8 -10 -9 -9 -8 -8 -7 -7 -7 -7 -6 -6 -5 -4 -3 -3 -3 -4 -5 -6 -6 -5 -5 -6 -8 -9 -6 -4 -2 -2 -2 -4 -6 -7 -8 -8 -7 -2 -2 -3 -2 2 4 9 12 10 3 -0 -2 -5 -5 -4 -2 1 4 5 4 4 2 -0 -1 -1 0 1 0 -1 -2 -2 -1 -1 -1 -0 0 1 1 1 0 -0 0 -0 0 1 3 4 5 7 8 8 7 6 6 6 6 6 6 7 6 6 5 4 3 3
-6 -7 -8 -9 -9 -8 -8 -8 -8 -7 -7 -6 -5 -5 -4 -4 -4 -4 -5 -6 -6 -7 -6 -5 -5 -6 -9 -8 -5 -2 -1 -1 -2 -4 -6 -6 -7 -8 -7 -2 -0 -0 -0 3 8 11 7 -0 -2 -0 -1 0 1 2 6 7 6 5 5 1 -0 0 2 1 1 0 -2 -3 -2 -1 -1 -2 -1 -0 1 0 -0 -0 0 0 -0 -0 1 3 4 6 7 8 8 7 6 6 5 5 5 6 6 6 5 4 3 2 2
-6 -6 -6 -8 -8 -9 -8 -7 -6 -6 -6 -6 -6 -6 -5 -5 -4 -4 -3 -4 -5 -6 -6 -6 -6 -6 -9 -9 -7 -4 -1 -0 -1 -3 -5 -5 -5 -6 -8 -5 -1 1 1 4 7 8 8 2 -0 0 4 6 6 7 10 9 8 6 4 1 1 3 2 1 0 -0 -3 -2 -0 0 -1 -2 -1 1 0 -1 -0 1 1 -0 -0 -0 1 3 4 5 6 7 7 7 6 5 4 4 4 6 6 5 4 3 3 2 2
-4 -5 -6 -7 -8 -8 -8 -8 -7 -6 -6 -6 -6 -6 -6 -5 -4 -3 -2 -3 -4 -6 -8 -8 -8 -7 -7 -9 -9 -8 -5 -2 -1 -2 -4 -4 -4 -4 -5 -6 -4 -2 1 3 4 6 8 5 2 3 7 6 7 9 9 8 6 4 1 2 2 2 -0 1 0 -0 -1 1 1 -0 -3 -1 0 0 -2 -1 0 1 -1 -1 -1 0 1 2 4 5 6 6 6 6 4 3 3 4 5 5 5 4 4 4 4 4 4
-4 -4 -6 -6 -7 -7 -8 -8 -8 -7 -6 -6 -6 -5 -5 -5 -4 -4 -4 -4 -6 -7 -8 -9 -9 -8 -7 -8 -8 -8 -6 -5 -3 -1 -1 -2 -3 -4 -4 -4 -3 -1 0 2 3 5 7 5 6 6 5 4 5 6 5 4 3 1 1 3 2 1 0 1 0 -0 0 1 -0 -2 -2 0 -0 -2 -3 -0 -0 -1 -2 -1 0 1 2 3 4 5 6 6 5 4 2 2 3 4 5 5 5 6 6 6 6 6 5
-4 -4 -4 -6 -6 -7 -7 -8 -8 -7 -7 -6 -6 -5 -5 -5 -6 -6 -5 -6 -7 -8 -8 -8 -8 -8 -7 -7 -7 -7 -6 -5 -5 -4 -1 -1 -2 -3 -4 -3 -2 -0 0 2 3 4 7 9 7 5 3 4 5 6 6 4 3 4 4 3 2 1 1 1 -0 -0 1 0 -1 -1 1 0 -1 -2 -1 -0 -1 -2 -1 1 1 1 2 3 4 4 5 5 4 2 1 2 4 6 7 6 6 7 7 7 6 5 5
-4 -4 -4 -4 -6 -7 -8 -8 -7 -7 -6 -6 -6 -6 -6 -6 -6 -5 -5 -5 -6 -7 -8 -7 -6 -6 -6 -6 -7 -7 -6 -5 -4 -4 -3 -1 -1 -2 -3 -2 -1 -0 1 2 3 5 7 8 7 6 7 7 8 8 6 4 5 6 4 3 2 1 0 0 0 0 0 -0 -0 0 1 -1 -2 -1 -0 -1 -2 -1 1 1 1 1 2 2 3 4 4 4 2 1 1 4 6 8 8 7 7 8 8 7 6 5 4
-4 -4 -4 -4 -5 -6 -7 -8 -7 -7 -6 -6 -6 -5 -5 -6 -6 -6 -5 -4 -4 -4 -5 -4 -4 -3 -4 -5 -6 -6 -6 -5 -4 -4 -4 -2 -1 -1 -2 -1 -0 0 1 2 3 4 6 6 6 7 7 6 6 6 3 7 7 6 3 2 1 1 1 1 0 0 -0 -0 -0 0 -0 -1 -1 -0 -1 -1 -1 0 1 0 1 1 0 1 2 3 3 1 0 0 2 6 8 9 8 7 7 7 7 6 5 4 4
-4 -4 -4 -5 -5 -6 -7 -7 -7 -7 -6 -6 -5 -4 -4 -4 -5 -6 -6 -5 -4 -3 -3 -2 -2 -3 -4 -5 -6 -6 -5 -5 -4 -4 -4 -3 -1 -0 -1 -0 0 1 1 2 3 4 5 6 7 7 6 8 6 4 3 7 8 6 5 2 1 1 2 1 0 -0 -0 -0 0 0 -0 0 0 -0 -1 -0 0 0 -0 0 -0 -0 -0 1 2 2 1 -0 -0 1 4 8 10 9 7 6 6 6 6 5 4 4 5
Height
5812 5811 5810 5810 5809 5808 5807 5806 5805 5804 5803 5802 5802 5801 5800 5799 5799 5798 5797 5797 5796 5796 5795 5795 5795 5795 5795 5795 5795 5795 5795 5795 5795 5795 5795 5795 5795 5795 5795 5795 5795 5796 5796 5797 5797 5798 5799 5799 5799 5799 5800 5800 5800 5801 5801 5801 5802 5803 5803 5804 5805 5805 5807 5808 5809 5810 5811 5812 5813 5814 5815 5817 5818 5820 5822 5824 5825 5827 5829 5831 5832 5834 5835 5837 5838 5839 5841 5842 5843 5843 5844 5845 5845 5845 5846 5847 5848 5849 5849 5850 5851 5852 5852
5808 5807 5806 5805 5804 5803 5802 5801 5800 5799 5798 5797 5797 5796 5795 5794 5793 5793 5792 5791 5791 5790 5790 5790 5790 5790 5789 5789 5789 5789 5789 5789 5790 5790 5790 5790 5790 5790 5790 5790 5791 5791 5791 5792 5792 5793 5794 5794 5795 5795 5795 5795 5796 5797 5797 5798 5798 5799 5799 5800 5800 5801 5802 5804 5805 5806 5807 5808 5809 5810 5812 5813 5814 5815 5817 5819 5821 5823 5825 5827 5829 5831 5833 5835 5835 5836 5838 5839 5840 5840 5841 5841 5842 5843 5845 5845 5845 5846 5847 5848 5849 5850 5851
5804 5803 5802 5801 5800 5799 5798 5796 5795 5795 5794 5792 5791 5790 5790 5789 5788 5787 5786 5785 5785 5785 5784 5784 5784 5784 5784 5784 5783 5783 5783 5783 5784 5784 5784 5785 5785 5785 5785 5785 5785 5786 5786 5786 5787 5788 5789 5789 5790 5790 5791 5791 5792 5792 5793 5793 5794 5795 5795 5796 5796 5797 5798 5800 5801 5802 5803 5804 5805 5806 5808 5809 5810 5811 5813 5815 5817 5819 5821 5823 5825 5827 5830 5831 5833 5834 5835 5835 5836 5838 5838 5838 5838 5839 5840 5842 5843 5844 5845 5846 5847 5848 5849
5800 5799 5798 5797 5795 5794 5793 5792 5791 5790 5789 5787 5786 5785 5785 5783 5782 5781 5780 5780 5779 5778 5778 5778 5777 5777 5777 5777 5777 5777 5777 5777 5778 5778 5778 5779 5779 5779 5779 5780 5780 5781 5781 5781 5782 5782 5783 5784 5785 5785 5786 5786 5787 5788 5788 5789 5790 5790 5791 5791 5792 5793 5794 5795 5796 5797 5799 5800 5801 5802 5804 5805 5806 5807 5809 5811 5813 5815 5817 5819 5822 5824 5826 5828 5830 5830 5831 5832 5833 5834 5836 5836 5837 5838 5838 5839 5840 5842 5843 5844 5845 5845 5846
5796 5795 5794 5792 5791 5790 5789 5787 5786 5785 5784 5783 5781 5780 5779 5778 5777 5776 5775 5774 5773 5772 5772 5771 5771 5771 5771 5771 5770 5770 5770 5771 5771 5771 5772 5772 5772 5773 5773 5773 5774 5775 5775 5776 5776 5776 5777 5778 5779 5780 5780 5781 5782 5783 5783 5784 5785 5785 5786 5787 5788 5789 5790 5790 5792 5793 5794 5795 5796 5798 5799 5801 5802 5803 5805 5806 5808 5810 5813 5815 5818 5820 5822 5824 5825 5827 5828 5829 5830 5831 5832 5834 5835 5835 5836 5837 5838 5839 5841 5842 5843 5842 5844
5792 5790 5789 5788 5786 5785 5784 5783 5781 5780 5779 5778 5776 5775 5774 5773 5772 5771 5770 5769 5768 5767 5766 5765 5765 5764 5764 5764 5764 5764 5764 5764 5764 5765 5765 5765 5765 5766 5767 5767 5768 5768 5769 5770 5770 5771 5771 5772 5773 5774 5775 5776 5777 5778 5778 5779 5780 5780 5781 5782 5783 5785 5785 5786 5787 5788 5789 5790 5792 5793 5795 5796 5798 5799 5800 5802 5804 5806 5809 5811 5813 5815 5817 5819 5821 5823 5825 5826 5827 5828 5829 5830 5832 5833 5834 5835 5835 5836 5838 5839 5839 5839 5841
5787 5785 5784 5783 5781 5780 5779 5777 5776 5775 5774 5772 5771 5770 5769 5767 5766 5765 5764 5763 5762 5761 5760 5760 5759 5758 5758 5757 5757 5757 5757 5757 5757 5758 5758 5758 5758 5759 5760 5760 5760 5761 5762 5763 5764 5765 5765 5766 5767 5768 5769 5770 5771 5772 5772 5773 5774 5775 5776 5777 5778 5780 5780 5781 5782 5783 5784 5785 5787 5789 5790 5792 5794 5795 5796 5798 5800 5802 5804 5806 5809 5810 5812 5815 5817 5819 5821 5823 5824 5825 5826 5827 5829 5830 5831 5833 5833 5834 5835 5836 5837 5838 5839
5781 5780 5779 5777 5776 5774 5773 5772 5770 5769 5768 5766 5765 5764 5762 5761 5760 5759 5758 5757 5756 5755 5755 5754 5753 5752 5751 5751 5750 5750 5750 5750 5750 5750 5750 5751 5751 5752 5752 5753 5753 5754 5755 5756 5757 5758 5759 5760 5761 5762 5763 5764 5765 5766 5767 5768 5769 5770 5771 5772 5773 5774 5775 5776 5777 5778 5780 5780 5782 5784 5785 5787 5789 5790 5792 5794 5795 5798 5800 5802 5804 5805 5808 5810 5812 5815 5817 5819 5821 5822 5824 5824 5825 5826 5828 5830 5830 5831 5832 5834 5835 5835 5836
5776 5775 5773 5771 5770 5769 5767 5766 5765 5763 5762 5760 5759 5758 5756 5755 5754 5753 5751 5750 5749 5749 5748 5747 5746 5746 5745 5744 5744 5744 5743 5743 5743 5743 5743 5744 5744 5744 5745 5745 5746 5746 5747 5749 5750 5751 5752 5753 5754 5755 5756 5757 5758 5759 5760 5761 5763 5764 5765 5766 5768 5769 5770 5771 5772 5773 5775 5776 5777 5779 5780 5782 5784 5786 5788 5790 5791 5793 5795 5797 5799 5801 5803 5805 5808 5810 5813 5815 5817 5819 5820 5821 5822 5824 5825 5826 5828 5829 5830 5831 5832 5832 5833
5771 5770 5768 5766 5765 5763 5761 5760 5759 5757 5756 5755 5753 5752 5750 5749 5748 5746 5745 5744 5743 5742 5741 5740 5739 5739 5738 5737 5737 5737 5736 5736 5736 5736 5736 5736 5736 5737 5737 5738 5738 5739 5740 5740 5742 5743 5744 5745 5747 5748 5750 5751 5752 5753 5754 5755 5756 5758 5759 5760 5762 5763 5764 5765 5766 5768 5769 5770 5772 5774 5775 5777 5780 5781 5783 5785 5787 5789 5790 5792 5794 5796 5798 5801 5803 5806 5808 5810 5813 5815 5816 5818 5820 5821 5822 5823 5825 5827 5828 5828 5828 5829 5831
5766 5765 5763 5761 5759 5757 5756 5754 5753 5751 5750 5748 5747 5745 5744 5743 5741 5740 5739 5737 5736 5735 5734 5733 5732 5731 5731 5730 5730 5730 5729 5729 5729 5729 5729 5729 5729 5730 5730 5730 5731 5731 5732 5733 5734 5735 5736 5737 5739 5741 5742 5744 5745 5746 5747 5748 5750 5751 5753 5754 5755 5757 5758 5759 5761 5762 5764 5765 5767 5768 5770 5772 5774 5776 5779 5780 5782 5783 5785 5787 5789 5791 5794 5796 5799 5801 5804 5806 5808 5810 5812 5814 5816 5817 5819 5820 5821 5823 5825 5825 5825 5826 5829
5761 5759 5757 5755 5753 5751 5750 5748 5746 5745 5743 5742 5740 5739 5737 5736 5734 5733 5732 5730 5729 5728 5727 5726 5725 5724 5724 5723 5722 5722 5721 5721 5721 5721 5721 5721 5721 5722 5722 5723 5723 5724 5725 5725 5726 5727 5728 5729 5730 5732 5735 5736 5738 5739 5740 5741 5743 5745 5746 5748 5749 5750 5751 5753 5755 5756 5758 5759 5761 5763 5765 5767 5769 5771 5773 5775 5777 5778 5780 5782 5784 5787 5789 5792 5794 5796 5799 5801 5804 5806 5808 5810 5812 5814 5815 5817 5818 5819 5821 5823 5824 5825 5827
5755 5753 5751 5749 5747 5745 5743 5741 5740 5738 5736 5734 5733 5731 5730 5728 5726 5725 5724 5723 5722 5720 5720 5718 5717 5717 5716 5715 5715 5714 5714 5713 5713 5713 5713 5713 5713 5714 5714 5715 5715 5716 5716 5717 5718 5719 5720 5721 5722 5724 5726 5728 5730 5731 5733 5735 5736 5738 5739 5741 5742 5743 5745 5746 5748 5750 5751 5753 5755 5757 5759 5761 5764 5765 5768 5770 5771 5773 5775 5777 5780 5782 5785 5787 5790 5792 5795 5797 5799 5801 5803 5805 5807 5810 5812 5814 5815 5816 5817 5819 5820 5822 5823
5749 5747 5745 5743 5741 5739 5736 5735 5732 5730 5729 5727 5725 5723 5722 5720 5718 5717 5715 5714 5713 5712 5711 5710 5709 5708 5708 5707 5706 5706 5705 5705 5705 5705 5704 5704 5705 5705 5705 5706 5707 5708 5708 5709 5710 5710 5711 5713 5714 5716 5719 5720 5722 5723 5725 5727 5729 5731 5732 5734 5735 5736 5738 5740 5741 5743 5745 5747 5749 5751 5754 5755 5757 5760 5762 5764 5766 5768 5770 5773 5775 5777 5780 5783 5785 5787 5790 5792 5795 5796 5799 5801 5803 5805 5808 5810 5812 5813 5814 5815 5817 5818 5820
5743 5741 5738 5736 5734 5732 5730 5727 5725 5723 5721 5719 5717 5715 5714 5712 5710 5709 5707 5705 5704 5703 5702 5701 5700 5699 5699 5698 5697 5697 5696 5696 5696 5696 5695 5695 5695 5696 5696 5697 5698 5699 5699 5700 5701 5702 5703 5704 5706 5708 5710 5712 5713 5715 5716 5719 5721 5723 5725 5727 5728 5729 5731 5733 5735 5736 5738 5740 5743 5745 5747 5750 5751 5753 5756 5758 5760 5763 5765 5767 5770 5772 5775 5778 5780 5783 5785 5787 5790 5792 5794 5796 5799 5801 5804 5806 5808 5810 5811 5812 5814 5815 5816
5737 5735 5732 5730 5727 5725 5722 5720 5718 5715 5713 5711 5709 5707 5705 5703 5701 5700 5698 5696 5695 5694 5692 5691 5690 5690 5689 5688 5688 5687 5687 5687 5687 5687 5686 5686 5686 5686 5687 5687 5688 5689 5690 5691 5692 5693 5694 5696 5698 5700 5702 5704 5705 5706 5708 5711 5713 5716 5718 5719 5720 5722 5724 5725 5727 5729 5731 5734 5736 5738 5741 5743 5745 5747 5750 5752 5755 5757 5760 5762 5765 5767 5770 5772 5775 5778 5780 5782 5785 5787 5789 5792 5794 5797 5799 5802 5804 5806 5808 5809 5810 5811 5814
5732 5729 5726 5723 5720 5718 5715 5713 5710 5708 5705 5703 5700 5698 5696 5694 5692 5690 5688 5687 5685 5684 5682 5681 5680 5679 5679 5678 5677 5677 5677 5677 5677 5677 5677 5677 5677 5677 5677 5677 5678 5678 5679 5680 5682 5683 5685 5687 5689 5691 5693 5695 5696 5697 5700 5702 5705 5707 5710 5711 5713 5715 5716 5718 5720 5722 5725 5727 5729 5731 5734 5736 5739 5741 5743 5746 5748 5751 5754 5757 5759 5762 5765 5767 5770 5772 5775 5777 5780 5782 5784 5787 5790 5792 5795 5797 5800 5802 5804 5806 5807 5809 5811
5726 5723 5720 5717 5715 5712 5709 5706 5703 5700 5697 5695 5692 5690 5687 5685 5682 5680 5678 5676 5675 5673 5672 5670 5669 5668 5667 5667 5666 5665 5665 5665 5666 5666 5667 5667 5667 5667 5667 5667 5667 5668 5669 5670 5671 5673 5675 5677 5679 5681 5683 5685 5687 5689 5690 5693 5696 5699 5701 5703 5705 5707 5709 5710 5713 5715 5717 5720 5722 5724 5727 5729 5732 5735 5737 5739 5742 5745 5748 5751 5754 5756 5759 5761 5764 5767 5769 5772 5774 5777 5779 5782 5785 5787 5790 5793 5795 5798 5800 5802 5804 5805 5807
5720 5718 5715 5711 5709 5705 5703 5700 5696 5694 5690 5687 5684 5682 5679 5676 5673 5670 5668 5666 5664 5662 5661 5659 5658 5657 5656 5655 5654 5654 5653 5654 5654 5655 5655 5655 5656 5656 5657 5657 5657 5657 5658 5659 5661 5662 5665 5666 5669 5671 5673 5675 5677 5679 5681 5684 5687 5690 5692 5694 5697 5699 5701 5703 5705 5707 5710 5712 5715 5717 5720 5722 5725 5728 5730 5733 5736 5739 5742 5745 5747 5750 5753 5756 5759 5761 5764 5766 5769 5772 5774 5777 5780 5783 5785 5788 5790 5793 5796 5798 5800 5802 5803
5715 5712 5709 5705 5702 5699 5696 5693 5690 5687 5684 5680 5677 5674 5671 5668 5665 5662 5659 5656 5654 5652 5650 5648 5647 5645 5644 5643 5642 5641 5641 5641 5642 5642 5642 5643 5644 5645 5645 5645 5646 5646 5648 5648 5650 5651 5654 5655 5658 5660 5663 5665 5667 5669 5672 5675 5678 5680 5683 5685 5688 5690 5692 5695 5697 5699 5702 5705 5707 5710 5712 5715 5718 5720 5724 5726 5729 5732 5735 5738 5741 5744 5747 5750 5753 5755 5758 5761 5764 5767 5770 5772 5775 5777 5780 5783 5785 5788 5791 5794 5796 5798 5800
5710 5706 5703 5700 5696 5693 5690 5686 5683 5680 5677 5673 5670 5666 5663 5660 5656 5653 5650 5647 5645 5642 5639 5637 5635 5634 5633 5632 5630 5630 5629 5629 5629 5630 5630 5630 5631 5632 5633 5633 5634 5635 5636 5637 5638 5640 5642 5644 5647 5649 5652 5655 5657 5659 5662 5665 5667 5670 5673 5675 5678 5681 5684 5686 5689 5691 5694 5697 5700 5702 5705 5708 5710 5713 5716 5719 5722 5725 5728 5731 5734 5737 5741 5744 5747 5750 5753 5756 5759 5762 5764 5767 5769 5772 5775 5778 5781 5784 5786 5789 5791 5794 5796
5704 5701 5697 5694 5690 5687 5683 5680 5676 5672 5669 5665 5661 5658 5654 5651 5648 5644 5640 5637 5635 5632 5629 5626 5625 5623 5621 5620 5619 5618 5617 5616 5617 5617 5617 5617 5618 5619 5620 5620 5621 5622 5624 5625 5626 5628 5630 5632 5635 5638 5641 5643 5646 5649 5652 5655 5657 5660 5662 5665 5668 5671 5675 5677 5680 5683 5685 5688 5691 5695 5697 5700 5703 5706 5709 5712 5715 5718 5721 5724 5728 5731 5734 5738 5741 5744 5747 5750 5753 5756 5759 5761 5764 5767 5770 5773 5776 5779 5781 5784 5787 5790 5792
5699 5695 5691 5687 5684 5680 5676 5672 5668 5664 5660 5656 5652 5649 5645 5641 5638 5635 5631 5628 5625 5622 5619 5616 5614 5612 5610 5609 5608 5606 5605 5605 5605 5605 5604 5605 5605 5606 5607 5608 5609 5610 5611 5612 5614 5616 5618 5620 5623 5626 5629 5632 5635 5638 5641 5644 5647 5649 5652 5655 5658 5661 5665 5668 5671 5674 5677 5680 5683 5686 5689 5692 5695 5698 5701 5704 5708 5711 5714 5717 5720 5724 5727 5731 5734 5738 5741 5744 5747 5750 5753 5756 5759 5762 5765 5768 5771 5774 5777 5780 5782 5785 5787
5692 5688 5684 5680 5676 5672 5668 5664 5660 5655 5651 5647 5644 5640 5636 5632 5629 5626 5622 5619 5616 5613 5610 5607 5604 5602 5599 5598 5597 5595 5593 5593 5593 5592 5592 5592 5593 5594 5595 5595 5596 5597 5599 5600 5601 5603 5605 5608 5610 5614 5616 5619 5622 5626 5630 5634 5636 5638 5641 5644 5647 5650 5654 5658 5661 5665 5668 5671 5675 5678 5681 5684 5687 5690 5694 5697 5700 5703 5707 5710 5713 5717 5720 5724 5727 5731 5735 5738 5741 5744 5747 5751 5754 5756 5760 5763 5766 5769 5771 5774 5777 5780 5782
5685 5681 5676 5672 5668 5664 5659 5655 5650 5646 5642 5638 5634 5631 5627 5623 5619 5616 5613 5610 5606 5604 5601 5598 5595 5592 5590 5588 5586 5584 5582 5582 5581 5580 5579 5580 5580 5581 5582 5583 5584 5585 5586 5587 5589 5591 5593 5595 5598 5600 5604 5607 5610 5614 5618 5622 5625 5627 5630 5633 5636 5640 5643 5647 5651 5655 5659 5662 5666 5669 5672 5675 5679 5682 5685 5689 5692 5696 5699 5703 5706 5710 5713 5717 5720 5725 5728 5732 5735 5738 5742 5745 5748 5751 5754 5757 5760 5763 5766 5769 5772 5775 5778
5678 5673 5668 5663 5659 5655 5649 5645 5640 5636 5632 5628 5624 5621 5618 5613 5609 5606 5604 5600 5597 5594 5591 5589 5586 5583 5581 5579 5577 5574 5572 5571 5570 5569 5568 5567 5568 5569 5570 5570 5571 5572 5573 5575 5576 5578 5580 5583 5585 5588 5591 5594 5597 5601 5606 5610 5613 5616 5619 5622 5625 5628 5632 5636 5640 5645 5649 5653 5656 5660 5663 5667 5670 5674 5677 5681 5685 5688 5691 5695 5699 5702 5705 5710 5714 5718 5721 5725 5729 5732 5736 5739 5742 5745 5748 5751 5755 5758 5761 5764 5767 5770 5773
5669 5665 5659 5654 5649 5645 5640 5634 5630 5625 5621 5617 5613 5610 5607 5603 5600 5596 5593 5590 5587 5583 5581 5579 5576 5573 5571 5569 5567 5565 5563 5561 5560 5559 5557 5556 5556 5557 5558 5558 5559 5560 5561 5562 5564 5565 5568 5570 5573 5575 5578 5581 5585 5588 5593 5597 5601 5604 5607 5610 5613 5617 5621 5625 5630 5634 5638 5643 5647 5650 5654 5658 5661 5665 5668 5672 5676 5680 5684 5687 5691 5694 5698 5702 5706 5710 5715 5719 5723 5726 5730 5733 5735 5739 5742 5746 5749 5753 5756 5759 5762 5765 5768
5660 5655 5650 5644 5639 5634 5630 5624 5619 5615 5611 5606 5602 5599 5595 5592 5590 5586 5582 5580 5577 5574 5570 5568 5565 5563 5561 5559 5558 5556 5554 5551 5550 5549 5547 5545 5545 5546 5546 5546 5547 5548 5549 5550 5551 5553 5555 5558 5560 5563 5565 5568 5572 5576 5580 5584 5588 5592 5595 5598 5602 5605 5610 5614 5618 5623 5627 5632 5636 5640 5645 5649 5652 5656 5660 5664 5668 5671 5675 5679 5683 5687 5691 5695 5699 5703 5708 5712 5716 5720 5723 5726 5730 5733 5737 5740 5744 5747 5750 5754 5757 5760 5763
5651 5645 5640 5635 5629 5624 5619 5614 5609 5605 5600 5596 5592 5588 5583 5580 5578 5575 5571 5569 5567 5564 5560 5557 5555 5552 5550 5549 5547 5545 5544 5542 5540 5539 5537 5536 5535 5535 5535 5535 5535 5536 5537 5538 5539 5541 5543 5546 5548 5551 5553 5556 5560 5563 5567 5571 5575 5579 5583 5586 5590 5594 5598 5602 5606 5611 5616 5621 5625 5630 5635 5639 5643 5647 5650 5654 5659 5663 5667 5671 5675 5679 5683 5687 5692 5696 5700 5705 5709 5713 5717 5720 5724 5727 5731 5735 5738 5742 5745 5749 5752 5755 5758
5642 5636 5630 5625 5620 5614 5610 5605 5600 5595 5590 5586 5582 5578 5573 5569 5567 5565 5561 5558 5556 5553 5550 5547 5545 5542 5540 5538 5536 5535 5533 5532 5530 5530 5528 5526 5525 5525 5524 5524 5525 5525 5525 5526 5528 5530 5532 5534 5537 5539 5541 5544 5547 5550 5554 5558 5562 5566 5570 5574 5578 5582 5586 5590 5595 5599 5605 5609 5614 5619 5624 5628 5633 5637 5641 5645 5649 5654 5658 5663 5667 5671 5675 5680 5684 5689 5693 5698 5702 5706 5710 5714 5718 5721 5725 5729 5732 5736 5740 5744 5747 5750 5753
5633 5627 5621 5615 5610 5605 5600 5595 5591 5585 5580 5576 5573 5568 5563 5559 5556 5554 5550 5547 5545 5543 5540 5537 5535 5532 5530 5528 5526 5525 5523 5521 5520 5520 5518 5516 5515 5515 5514 5514 5514 5514 5515 5515 5517 5519 5520 5523 5525 5528 5530 5532 5535 5538 5542 5545 5549 5554 5558 5562 5566 5570 5574 5578 5582 5587 5592 5598 5603 5608 5613 5618 5622 5627 5632 5636 5640 5645 5649 5654 5658 5663 5667 5672 5676 5681 5686 5690 5695 5699 5704 5708 5711 5715 5719 5723 5727 5731 5735 5738 5741 5745 5748
5624 5618 5612 5606 5601 5596 5590 5586 5581 5577 5571 5567 5564 5559 5554 5550 5547 5544 5540 5537 5535 5532 5529 5526 5524 5522 5520 5518 5516 5514 5512 5511 5510 5510 5508 5506 5506 5505 5505 5504 5504 5504 5504 5505 5506 5508 5510 5512 5514 5517 5519 5521 5524 5527 5530 5533 5537 5541 5546 5550 5554 5558 5562 5566 5570 5575 5580 5585 5591 5596 5601 5606 5611 5617 5622 5626 5631 5635 5640 5645 5650 5654 5659 5664 5669 5673 5678 5683 5687 5692 5697 5701 5705 5709 5713 5717 5721 5725 5729 5733 5736 5740 5743
5615 5609 5603 5597 5592 5587 5582 5577 5573 5568 5563 5559 5555 5550 5545 5541 5537 5534 5530 5527 5524 5521 5519 5516 5514 5512 5510 5508 5506 5504 5502 5501 5500 5499 5498 5497 5496 5496 5495 5494 5494 5494 5494 5495 5497 5499 5499 5501 5504 5506 5508 5510 5513 5516 5518 5521 5525 5529 5534 5538 5542 5546 5550 5554 5559 5563 5568 5573 5579 5584 5589 5595 5600 5606 5611 5616 5621 5626 5631 5636 5641 5646 5651 5656 5661 5665 5670 5675 5680 5684 5689 5694 5698 5702 5706 5710 5715 5719 5723 5726 5730 5734 5737
5607 5601 5595 5589 5584 5578 5574 5569 5564 5560 5555 5550 5546 5542 5537 5533 5529 5525 5521 5518 5515 5512 5509 5507 5504 5502 5500 5498 5496 5494 5492 5491 5490 5489 5488 5487 5487 5486 5485 5485 5485 5484 5484 5485 5487 5489 5489 5491 5494 5497 5498 5500 5502 5505 5507 5510 5514 5518 5522 5526 5530 5535 5539 5543 5547 5551 5556 5561 5566 5572 5577 5583 5589 5595 5601 5606 5611 5616 5621 5626 5632 5637 5643 5647 5652 5657 5661 5666 5671 5676 5681 5686 5690 5695 5699 5704 5708 5712 5716 5720 5725 5728 5732
5599 5592 5587 5581 5576 5570 5565 5561 5556 5552 5547 5542 5538 5533 5529 5524 5520 5516 5513 5509 5506 5503 5500 5497 5495 5492 5490 5488 5486 5484 5482 5481 5480 5479 5478 5477 5477 5476 5476 5475 5475 5474 5475 5477 5478 5479 5480 5482 5485 5487 5488 5490 5492 5495 5497 5500 5503 5507 5511 5515 5520 5524 5528 5532 5535 5540 5544 5549 5554 5560 5565 5571 5577 5584 5590 5595 5601 5606 5612 5617 5623 5628 5633 5638 5643 5648 5653 5658 5663 5668 5674 5679 5683 5688 5692 5697 5701 5705 5710 5715 5719 5723 5726
5591 5585 5579 5574 5568 5563 5558 5553 5549 5544 5539 5534 5530 5525 5521 5516 5512 5508 5504 5500 5496 5493 5490 5487 5485 5482 5479 5477 5476 5474 5472 5470 5470 5469 5467 5467 5466 5466 5466 5466 5465 5464 5466 5468 5469 5470 5471 5473 5475 5477 5478 5480 5483 5485 5487 5489 5493 5497 5501 5505 5509 5513 5517 5521 5525 5528 5532 5537 5542 5548 5554 5560 5566 5572 5578 5584 5590 5596 5602 5608 5614 5619 5624 5629 5634 5639 5645 5650 5655 5660 5666 5671 5676 5681 5686 5690 5695 5699 5704 5708 5713 5717 5721
5584 5578 5571 5566 5561 5556 5550 5546 5541 5536 5532 5527 5522 5517 5513 5508 5504 5499 5495 5491 5487 5484 5480 5477 5475 5472 5469 5467 5465 5463 5461 5460 5459 5459 5457 5456 5456 5456 5456 5456 5455 5455 5456 5458 5459 5460 5462 5465 5466 5467 5469 5471 5473 5475 5477 5480 5483 5487 5491 5494 5498 5503 5507 5511 5515 5518 5521 5526 5531 5536 5542 5548 5554 5560 5567 5573 5580 5586 5592 5598 5604 5609 5614 5620 5625 5630 5636 5641 5647 5652 5658 5664 5669 5674 5679 5684 5688 5693 5697 5702 5706 5711 5715
5577 5571 5565 5559 5554 5549 5544 5539 5534 5529 5524 5519 5514 5509 5505 5500 5495 5491 5487 5482 5478 5474 5470 5467 5464 5461 5459 5457 5454 5452 5450 5449 5449 5448 5446 5446 5446 5446 5446 5445 5445 5446 5447 5448 5449 5451 5454 5456 5456 5457 5459 5461 5464 5466 5468 5470 5474 5478 5481 5484 5488 5493 5498 5501 5505 5508 5511 5515 5520 5525 5531 5537 5543 5549 5555 5562 5569 5575 5582 5588 5594 5599 5604 5610 5616 5621 5627 5633 5639 5645 5650 5656 5661 5667 5672 5677 5681 5686 5691 5695 5700 5704 5708
5570 5564 5558 5552 5547 5542 5537 5532 5527 5522 5517 5512 5507 5502 5497 5492 5487 5482 5478 5474 5469 5465 5460 5457 5454 5451 5448 5446 5443 5441 5440 5438 5437 5437 5436 5435 5436 5436 5435 5435 5436 5438 5438 5438 5440 5442 5445 5446 5447 5448 5450 5453 5455 5456 5459 5462 5465 5468 5471 5475 5479 5484 5488 5492 5495 5498 5502 5506 5510 5515 5520 5526 5532 5538 5545 5551 5558 5565 5571 5578 5583 5589 5594 5600 5606 5612 5618 5625 5630 5636 5642 5647 5653 5659 5664 5669 5674 5679 5683 5688 5693 5697 5702
5562 5557 5552 5546 5540 5535 5530 5525 5520 5515 5510 5505 5500 5495 5489 5484 5479 5474 5470 5465 5460 5456 5451 5447 5443 5440 5437 5435 5432 5430 5428 5426 5425 5425 5424 5424 5425 5425 5425 5425 5427 5428 5429 5429 5430 5433 5435 5436 5438 5440 5442 5444 5445 5447 5450 5453 5456 5459 5462 5465 5470 5475 5479 5482 5486 5489 5493 5497 5501 5505 5511 5516 5521 5527 5534 5540 5547 5554 5560 5567 5573 5578 5584 5591 5597 5603 5610 5615 5621 5627 5633 5639 5645 5650 5656 5661 5666 5671 5675 5680 5685 5690 5695
5556 5550 5545 5540 5534 5528 5523 5518 5513 5508 5503 5498 5493 5487 5482 5476 5471 5466 5461 5456 5452 5447 5442 5437 5433 5429 5425 5423 5421 5419 5416 5414 5413 5413 5412 5412 5412 5413 5413 5415 5417 5418 5419 5420 5422 5423 5425 5427 5430 5432 5434 5435 5436 5439 5442 5445 5447 5450 5453 5457 5461 5465 5469 5473 5477 5480 5484 5488 5492 5497 5501 5506 5511 5517 5523 5530 5536 5543 5550 5556 5562 5568 5575 5581 5588 5594 5600 5606 5612 5618 5624 5630 5636 5642 5648 5653 5658 5663 5668 5673 5678 5683 5688
5550 5544 5538 5533 5527 5522 5517 5511 5506 5501 5496 5491 5485 5480 5475 5469 5464 5458 5453 5448 5443 5438 5433 5428 5423 5419 5415 5411 5409 5407 5404 5402 5401 5400 5399 5399 5400 5400 5402 5404 5406 5408 5409 5411 5413 5414 5416 5418 5421 5423 5425 5427 5429 5431 5434 5436 5439 5441 5445 5448 5452 5456 5460 5464 5468 5472 5476 5480 5485 5489 5493 5497 5502 5507 5513 5520 5526 5532 5539 5545 5552 5558 5565 5571 5578 5584 5590 5596 5602 5609 5615 5621 5627 5633 5640 5645 5650 5655 5660 5665 5671 5676 5681
5544 5538 5532 5526 5521 5515 5510 5505 5500 5494 5489 5484 5478 5473 5467 5462 5456 5450 5445 5439 5434 5429 5423 5419 5414 5409 5404 5401 5398 5395 5393 5391 5390 5388 5388 5387 5387 5388 5390 5392 5394 5397 5399 5401 5404 5405 5407 5410 5412 5415 5417 5419 5421 5424 5426 5428 5430 5433 5436 5440 5443 5447 5450 5455 5459 5463 5468 5472 5477 5480 5484 5489 5493 5498 5504 5510 5516 5522 5529 5535 5541 5548 5555 5561 5568 5574 5580 5587 5593 5599 5606 5612 5618 5625 5631 5637 5643 5648 5653 5659 5664 5669 5675
5538 5532 5526 5521 5515 5509 5504 5498 5493 5488 5482 5477 5471 5466 5460 5454 5448 5442 5436 5430 5425 5419 5414 5409 5405 5400 5395 5391 5388 5385 5383 5381 5379 5378 5377 5376 5376 5376 5378 5380 5382 5385 5388 5391 5394 5396 5398 5401 5404 5406 5409 5411 5414 5416 5418 5420 5423 5425 5428 5431 5435 5438 5442 5446 5450 5455 5460 5464 5468 5472 5476 5480 5485 5490 5495 5500 5506 5512 5519 5525 5531 5538 5545 5551 5558 5564 5570 5577 5583 5590 5597 5603 5610 5616 5623 5629 5635 5641 5646 5652 5657 5662 5668
5532 5526 5520 5515 5509 5503 5497 5492 5486 5481 5475 5470 5465 5459 5453 5447 5440 5434 5428 5421 5416 5410 5405 5401 5397 5393 5388 5384 5380 5377 5374 5371 5369 5368 5367 5366 5365 5366 5367 5369 5370 5373 5377 5381 5384 5387 5390 5393 5395 5398 5401 5404 5406 5408 5410 5413 5415 5417 5420 5423 5427 5430 5434 5438 5442 5447 5452 5456 5460 5464 5468 5473 5477 5482 5487 5492 5497 5503 5508 5515 5521 5527 5534 5541 5548 5554 5560 5567 5574 5581 5588 5595 5601 5608 5615 5622 5628 5634 5640 5645 5650 5655 5660
5526 5520 5515 5509 5503 5497 5491 5485 5480 5474 5469 5464 5458 5452 5445 5439 5432 5426 5419 5413 5408 5403 5398 5393 5389 5385 5381 5377 5372 5368 5365 5362 5360 5358 5357 5356 5355 5356 5357 5358 5360 5362 5366 5370 5374 5377 5381 5384 5387 5390 5393 5396 5398 5400 5403 5405 5407 5409 5412 5416 5419 5422 5426 5431 5435 5440 5444 5447 5452 5456 5461 5465 5470 5474 5479 5484 5488 5493 5499 5505 5511 5518 5525 5531 5538 5545 5551 5558 5565 5572 5579 5586 5593 5600 5607 5614 5620 5626 5631 5637 5642 5647 5653
5521 5515 5509 5503 5497 5491 5485 5480 5474 5468 5463 5457 5451 5445 5438 5431 5424 5417 5411 5405 5400 5395 5391 5386 5382 5378 5374 5370 5365 5361 5357 5353 5350 5348 5347 5346 5346 5346 5347 5348 5349 5352 5355 5359 5364 5368 5372 5376 5379 5383 5385 5388 5390 5393 5395 5397 5399 5401 5405 5408 5411 5415 5420 5425 5428 5432 5435 5440 5444 5449 5454 5458 5462 5466 5470 5475 5480 5484 5490 5495 5502 5508 5515 5522 5529 5535 5542 5549 5556 5563 5570 5577 5584 5591 5598 5605 5611 5617 5623 5629 5634 5639 5645
5515 5509 5504 5498 5491 5485 5479 5474 5468 5462 5456 5450 5444 5437 5430 5423 5416 5410 5404 5398 5393 5388 5384 5379 5375 5370 5366 5362 5358 5353 5349 5345 5341 5339 5337 5336 5336 5337 5337 5337 5340 5342 5345 5349 5354 5359 5363 5367 5371 5375 5378 5380 5382 5384 5386 5388 5390 5394 5398 5401 5405 5410 5415 5418 5421 5424 5428 5433 5438 5442 5447 5450 5455 5458 5462 5467 5471 5476 5481 5487 5493 5499 5505 5512 5519 5526 5533 5540 5547 5555 5561 5569 5575 5582 5589 5596 5603 5609 5615 5620 5625 5631 5637
5509 5503 5497 5492 5486 5480 5474 5468 5462 5456 5450 5444 5437 5430 5423 5416 5409 5403 5397 5392 5386 5381 5377 5373 5368 5363 5358 5354 5350 5345 5341 5336 5332 5330 5328 5326 5326 5326 5327 5328 5330 5333 5336 5340 5344 5349 5355 5359 5364 5367 5369 5371 5373 5374 5376 5379 5382 5387 5391 5395 5400 5405 5409 5411 5414 5417 5422 5427 5431 5435 5439 5443 5446 5450 5455 5459 5464 5469 5474 5479 5485 5490 5497 5504 5510 5517 5524 5531 5538 5545 5553 5560 5566 5573 5580 5587 5594 5600 5606 5612 5618 5623 5629
5504 5498 5491 5485 5480 5474 5468 5462 5456 5450 5445 5438 5431 5424 5416 5410 5403 5397 5392 5386 5381 5376 5371 5366 5362 5357 5351 5346 5342 5338 5333 5328 5324 5321 5319 5318 5317 5316 5317 5319 5321 5323 5327 5331 5335 5341 5346 5351 5355 5357 5359 5360 5362 5364 5367 5371 5376 5381 5386 5391 5396 5400 5402 5404 5408 5412 5416 5421 5425 5428 5432 5435 5439 5443 5447 5452 5456 5461 5466 5471 5476 5482 5488 5495 5501 5508 5515 5522 5529 5536 5544 5550 5558 5565 5571 5578 5585 5592 5598 5604 5610 5617 5623
5498 5492 5486 5480 5474 5468 5462 5456 5450 5445 5438 5432 5425 5418 5411 5404 5398 5392 5387 5381 5376 5370 5365 5360 5355 5351 5346 5340 5335 5331 5327 5322 5317 5314 5311 5309 5309 5309 5308 5310 5312 5315 5318 5322 5328 5333 5337 5341 5344 5346 5347 5349 5351 5355 5360 5366 5372 5378 5382 5386 5390 5392 5395 5399 5403 5407 5411 5415 5418 5421 5425 5429 5432 5436 5440 5445 5449 5454 5459 5464 5469 5474 5480 5486 5493 5499 5506 5513 5520 5528 5535 5542 5549 5555 5563 5570 5577 5584 5590 5597 5604 5611 5618
5493 5487 5481 5475 5469 5463 5457 5451 5445 5439 5432 5425 5419 5412 5405 5399 5393 5387 5382 5377 5371 5366 5361 5355 5350 5345 5340 5336 5331 5326 5322 5317 5312 5308 5305 5302 5301 5301 5301 5301 5304 5307 5310 5315 5320 5324 5327 5330 5333 5335 5338 5340 5344 5350 5357 5364 5369 5373 5377 5380 5383 5386 5390 5394 5398 5402 5405 5409 5412 5415 5419 5423 5426 5430 5434 5438 5442 5447 5451 5456 5461 5467 5472 5478 5484 5491 5498 5505 5512 5519 5526 5533 5540 5547 5554 5561 5568 5575 5583 5590 5597 5604 5611
5488 5482 5475 5469 5463 5457 5452 5446 5440 5433 5427 5420 5413 5406 5400 5394 5389 5383 5377 5372 5367 5362 5356 5351 5345 5340 5335 5330 5326 5322 5317 5313 5308 5303 5300 5297 5295 5294 5295 5296 5297 5299 5302 5308 5312 5315 5317 5319 5321 5325 5329 5334 5341 5348 5354 5359 5364 5367 5370 5374 5377 5381 5385 5390 5393 5396 5400 5404 5407 5410 5414 5417 5420 5424 5428 5432 5436 5440 5444 5449 5454 5459 5464 5470 5476 5483 5490 5497 5504 5511 5517 5524 5531 5538 5545 5553 5560 5567 5575 5582 5589 5596 5604
5483 5477 5470 5464 5458 5452 5447 5441 5435 5428 5421 5414 5407 5401 5395 5390 5384 5379 5373 5368 5362 5357 5352 5347 5341 5336 5330 5325 5321 5318 5313 5309 5305 5300 5296 5293 5290 5289 5288 5290 5291 5292 5295 5300 5304 5307 5309 5310 5313 5319 5326 5332 5339 5345 5350 5355 5358 5361 5365 5369 5372 5376 5380 5385 5388 5392 5396 5399 5402 5405 5409 5412 5415 5418 5422 5425 5429 5433 5437 5442 5447 5452 5457 5462 5469 5475 5482 5489 5496 5502 5509 5516 5523 5530 5537 5544 5552 5559 5566 5574 5581 5589 5596
5479 5472 5466 5460 5454 5448 5442 5436 5430 5424 5416 5409 5402 5396 5390 5385 5380 5375 5369 5364 5359 5353 5348 5343 5337 5332 5326 5321 5317 5313 5310 5305 5301 5297 5292 5289 5287 5285 5284 5284 5285 5287 5290 5294 5297 5300 5302 5304 5309 5315 5322 5329 5335 5341 5345 5350 5352 5355 5359 5363 5367 5371 5376 5380 5383 5387 5390 5394 5397 5400 5404 5407 5410 5413 5417 5420 5423 5427 5431 5436 5440 5445 5450 5455 5461 5468 5474 5481 5487 5494 5500 5507 5514 5521 5529 5536 5544 5551 5559 5566 5574 5581 5589
5475 5469 5462 5455 5450 5444 5438 5432 5426 5419 5412 5405 5398 5392 5386 5381 5376 5371 5366 5360 5355 5349 5344 5338 5333 5328 5323 5318 5313 5309 5305 5302 5298 5294 5290 5287 5284 5282 5280 5280 5281 5283 5285 5288 5290 5293 5296 5300 5305 5311 5317 5325 5331 5335 5339 5342 5345 5350 5354 5358 5362 5367 5371 5375 5378 5382 5385 5389 5393 5396 5400 5402 5405 5408 5411 5414 5417 5421 5425 5430 5434 5439 5444 5449 5455 5460 5466 5473 5479 5485 5492 5499 5506 5514 5522 5529 5536 5544 5551 5559 5567 5575 5582
5472 5465 5458 5452 5446 5440 5434 5428 5421 5415 5407 5400 5394 5388 5382 5377 5372 5367 5362 5357 5351 5346 5340 5335 5330 5325 5320 5316 5311 5306 5303 5299 5295 5292 5288 5285 5281 5279 5277 5277 5277 5279 5281 5283 5285 5288 5292 5296 5302 5308 5312 5318 5325 5329 5332 5336 5340 5345 5349 5354 5358 5362 5366 5370 5374 5378 5381 5385 5389 5392 5395 5398 5401 5404 5406 5409 5412 5416 5420 5424 5428 5433 5438 5442 5448 5453 5459 5465 5471 5477 5484 5491 5499 5507 5515 5522 5530 5537 5545 5553 5561 5568 5575
5468 5462 5455 5449 5442 5436 5430 5424 5417 5410 5403 5397 5390 5385 5379 5374 5369 5364 5359 5354 5348 5343 5338 5333 5328 5323 5319 5314 5310 5305 5301 5297 5293 5289 5286 5283 5280 5277 5275 5274 5274 5275 5277 5278 5281 5285 5288 5294 5299 5303 5306 5314 5320 5324 5327 5332 5337 5341 5345 5349 5353 5357 5361 5365 5370 5374 5377 5381 5385 5388 5390 5394 5397 5399 5402 5405 5408 5411 5415 5419 5423 5427 5431 5436 5440 5446 5451 5457 5463 5470 5476 5485 5493 5501 5509 5516 5524 5531 5539 5546 5554 5560 5568
5465 5458 5452 5446 5440 5433 5427 5420 5414 5407 5400 5393 5387 5381 5375 5370 5365 5361 5356 5351 5346 5341 5336 5332 5327 5323 5318 5313 5309 5304 5300 5295 5291 5288 5284 5281 5278 5275 5273 5272 5272 5272 5274 5275 5278 5282 5286 5291 5295 5298 5304 5311 5315 5319 5324 5329 5333 5337 5341 5345 5349 5353 5357 5362 5365 5369 5373 5377 5380 5384 5387 5390 5393 5395 5398 5401 5404 5407 5410 5414 5417 5421 5425 5430 5434 5439 5445 5450 5456 5463 5470 5479 5488 5495 5503 5510 5517 5524 5531 5539 5546 5553 5560
5461 5455 5449 5443 5436 5430 5424 5417 5410 5404 5397 5390 5384 5378 5373 5368 5363 5358 5354 5349 5345 5340 5335 5331 5327 5323 5318 5313 5308 5304 5299 5295 5291 5287 5283 5280 5277 5275 5272 5271 5270 5271 5272 5273 5276 5279 5283 5287 5290 5296 5303 5307 5310 5315 5320 5325 5329 5333 5337 5340 5345 5349 5354 5358 5361 5365 5369 5373 5376 5380 5383 5386 5389 5392 5395 5397 5400 5403 5406 5409 5412 5415 5419 5423 5427 5432 5438 5443 5449 5456 5465 5474 5482 5489 5495 5502 5509 5516 5524 5531 5538 5545 5553
5458 5452 5446 5440 5434 5427 5421 5414 5407 5400 5394 5388 5381 5376 5371 5365 5360 5356 5351 5347 5343 5339 5335 5331 5327 5322 5317 5313 5308 5304 5300 5295 5291 5287 5283 5280 5277 5274 5272 5271 5270 5270 5270 5272 5274 5277 5281 5284 5289 5294 5299 5303 5308 5313 5317 5320 5325 5329 5333 5337 5341 5345 5350 5354 5357 5361 5365 5369 5373 5376 5380 5382 5385 5389 5391 5394 5396 5399 5401 5404 5406 5410 5413 5417 5421 5426 5431 5437 5443 5451 5460 5468 5476 5482 5488 5494 5501 5509 5516 5524 5531 5539 5547